Dewpoint
-13 -13 -13 -13 -12 -13 -12 -12 -11 -12 -12 -12 -12 -12 -13 -13 -12 -12 -13 -12 -12 -11 -10 -10 -7 -9 -9 -9 -7 -8 -8 -9 -10 -10 -10 -9 -10 -10 -8 -8 -8 -9 -9 -11 -11 -13 -13 -13 -12 -12 -12 -12 -11 -11 -11 -5 -11 -12 -13 -13 -13 -12 3
-13 -12 -13 -13 -13 -13 -13 -12 -12 -13 -12 -12 -12 -13 -12 -12 -12 -13 -13 -12 -12 -11 -8 -7 -7 -8 -9 -9 -6 -6 -7 -8 -9 -7 -8 -9 -8 -10 -8 -9 -8 -8 -9 -9 -11 -12 -13 -12 -12 -12 -11 -12 -12 -12 -11 -11 -11 -11 -11 -12 -12 -12 -12
-12 -11 -12 -12 -12 -13 -12 -12 -12 -12 -10 -10 -11 -12 -12 -12 -12 -12 -12 -12 -11 -11 -10 -7 -6 -6 -6 -7 -7 -7 -7 -7 -7 -7 -8 -8 -8 -8 -10 -10 -9 -8 -9 -9 -10 -12 -12 -12 -12 -12 -12 -12 -11 -11 -11 -11 -11 -11 -10 -10 -11 -12 -12
-12 -11 -12 -11 -11 -11 -12 -12 -12 -10 -11 -9 -10 -10 -9 -11 -11 -11 -10 -9 -10 -10 -8 -7 -7 -7 -7 -6 -7 -7 -8 -8 -7 -8 -8 -8 -7 -8 -9 -11 -10 -9 -8 -8 -9 -10 -11 -11 -12 -12 -12 -12 -12 -12 -11 -11 -8 -10 -7 -10 -9 -11 -11
-10 -11 -11 -11 -11 -11 -11 -11 -11 -11 -11 -11 -11 -10 -9 -7 -5 -7 -6 -7 -7 -5 -5 -6 -6 -6 -6 -6 -7 -7 -8 -8 -7 -7 -8 -8 -8 -8 -8 -8 -10 -9 -7 -8 -9 -9 -10 -10 -11 -11 -11 -11 -12 -12 -12 -11 -11 -8 -7 -7 -10 -9 -10
-9 -9 -10 -11 -11 -11 -11 -11 -11 -11 -10 -10 -10 -10 -9 -5 -5 -6 -5 -5 -6 -6 -5 -5 -6 -7 -6 -6 -7 -8 -8 -7 -7 -7 -8 -8 -8 -8 -7 -7 -7 -7 -7 -7 -8 -8 -9 -10 -11 -12 -12 -12 -12 -12 -12 -10 -9 -8 -7 -7 -7 -7 -6
-9 -9 -9 -10 -10 -9 -10 -9 -10 -9 -9 -9 -9 -6 -4 -5 -5 -7 -5 -5 -5 -5 -5 -5 -5 -5 -6 -6 -6 -7 -7 -7 -8 -8 -8 -8 -8 -8 -7 -7 -8 -7 -7 -8 -8 -8 -9 -10 -10 -11 -12 -12 -12 -12 -12 -12 -12 -11 -9 -8 -8 -8 -7
-8 -10 -9 -9 -9 -9 -8 -8 -8 -8 -8 -7 -5 -5 -5 -6 -5 -6 -6 -6 -6 -5 -5 -5 -5 -5 -6 -6 -6 -7 -7 -7 -9 -9 -9 -9 -8 -8 -8 -9 -9 -8 -8 -9 -9 -10 -10 -11 -12 -12 -13 -12 -11 -11 -11 -13 -13 -13 -12 -10 -9 -8 -8
-7 -8 -8 -9 -8 -8 -6 -5 -5 -5 -5 -5 -5 -6 -6 -6 -6 -6 -6 -6 -6 -5 -5 -6 -6 -6 -6 -5 -4 -4 -5 -5 -6 -9 -10 -9 -8 -8 -9 -9 -9 -9 -9 -9 -10 -10 -10 -11 -11 -12 -12 -12 -12 -12 -13 -13 -12 -11 -11 -10 -11 -9 -7
-6 -5 -6 -7 -6 -6 -6 -6 -6 -4 -1 2 -3 -6 -6 -6 -6 -6 -6 -6 -6 -6 -6 -6 -6 -6 -4 -4 -4 -3 -3 -3 -3 -3 -6 -8 -8 -9 -8 -9 -9 -9 -9 -9 -10 -11 -11 -11 -11 -12 -13 -13 -13 -13 -12 -12 -13 -13 -13 -12 -9 -9 -8
-5 -6 -6 -7 -7 -7 -7 -7 -7 -2 6 9 10 6 2 -0 -2 -2 -4 -5 -6 -6 -6 -5 -5 -6 -5 -4 -3 -3 -2 -2 -1 -1 -1 -1 -2 -3 -7 -9 -9 -9 -9 -10 -10 -11 -10 -11 -11 -11 -12 -12 -12 -12 -13 -13 -13 -13 -11 -10 -11 -11 -8
-7 -7 -7 -8 -8 -8 -8 -8 -4 6 8 10 11 11 5 5 5 4 2 -1 -2 -2 -2 -2 -4 -4 -5 -6 -5 -5 -4 -2 -0 0 0 0 1 1 2 4 -4 -8 -8 -8 -9 -9 -9 -9 -10 -10 -9 -9 -9 -10 -10 -9 -10 -8 -9 -8 -9 -9 -9
-7 -8 -8 -9 -8 -9 -9 -9 2 8 10 11 12 12 9 4 5 4 3 3 2 2 1 0 -0 -2 -3 -5 -3 -3 -4 -5 -4 -1 0 -0 -0 -0 0 7 7 4 -2 -5 -7 -7 -8 -7 -7 -7 -7 -7 -8 -7 -7 -8 -8 -7 -7 -7 -8 -9 -9
-8 -8 -9 -9 -9 -9 -9 -9 -6 7 9 10 12 13 9 4 5 4 4 3 2 2 0 0 -1 -2 -2 -3 -4 -3 -3 -4 -5 -5 -4 -4 -3 -3 -3 -1 1 1 1 1 -1 -2 -3 -3 -2 -4 -4 -2 -1 -3 -5 -6 -6 -6 -6 -6 -6 -6 -5
-9 -9 -9 -9 -10 -10 -10 -10 3 8 10 11 12 12 9 4 4 4 4 3 2 2 1 -0 -1 -2 -3 -3 -5 -6 -5 -5 -5 -6 -6 -6 -7 -7 -6 -6 -5 -5 -4 -4 -5 -5 -5 -5 -4 -4 -4 -3 -3 -3 -4 -4 -5 -4 -4 -4 -3 -3 -2
-10 -10 -10 -9 -10 -11 -10 -10 6 9 10 11 12 12 5 4 4 3 2 1 1 0 -1 -1 -2 -3 -4 -4 -5 -4 0 -0 -5 -7 -8 -9 -9 -9 -8 -8 -5 5 4 -4 -6 -7 -6 -6 -6 2 -4 -5 -4 -4 -3 -4 -4 -3 -3 -4 -5 -6 -6
-10 -9 -9 -10 -11 -11 -10 -10 -1 7 9 11 12 9 3 3 2 -0 0 -1 -2 -3 -3 -3 -3 -4 -5 -5 -6 -5 7 7 1 -2 -5 -8 -9 -9 -10 -10 -9 4 -0 7 6 3 5 8 6 9 8 10 9 4 2 1 -2 -3 -3 -5 -8 -9 -9
-9 -10 -10 -10 -10 -10 -11 -10 -6 5 9 10 12 9 3 3 2 1 1 -0 -1 -2 -3 -4 -3 -3 -6 -6 -6 3 7 7 2 -2 -2 -3 -6 -8 -9 -9 -8 -8 -6 8 4 6 9 8 8 8 8 8 8 8 5 -5 -8 -8 -9 -11 -11 -12 -12
-11 -11 -11 -10 -10 -8 -8 -9 -8 4 8 10 11 6 2 -0 -2 -3 -4 -5 -5 -5 -5 -6 -4 -2 -2 -5 -4 8 8 5 -1 -2 -2 -3 -3 -5 -6 -6 -6 -6 -7 -7 -7 -6 -5 -5 -0 -8 -11 -10 -7 -4 -4 -9 -11 -12 -13 -15 -15 -15 -15
-11 -11 -11 -10 -10 -11 -10 -10 -10 -8 5 8 9 10 3 1 0 -1 -2 -3 -4 -5 -5 -6 -7 -5 -1 7 8 6 3 3 3 -1 -1 -2 -4 -5 -6 -4 -3 -4 -5 -5 -5 -5 -7 -10 -11 -12 -12 -12 -14 -13 -12 -12 -11 -12 -13 -14 -14 -14 -14
-12 -12 -12 -12 -11 -12 -12 -12 -12 -11 4 6 8 9 7 1 -0 -0 -2 -2 -4 -5 -6 -7 -7 -8 -5 3 7 7 8 8 8 8 0 -1 -2 -2 -1 2 -3 -4 -3 -9 -11 -13 -13 -14 -15 -15 -16 -16 -15 -15 -15 -14 -12 -12 -11 -12 -13 -13 -14
-13 -14 -13 -13 -13 -13 -13 -13 -11 -13 -3 4 7 8 9 2 0 -1 -2 -4 -6 -6 -7 -7 -8 -8 -6 -4 6 7 7 9 8 9 1 0 6 6 4 -8 -8 -12 -14 -14 -15 -16 -17 -17 -18 -18 -18 -17 -17 -16 -15 -15 -14 -13 -13 -13 -11 -12 -13
-16 -16 -16 -16 -15 -15 -15 -15 -15 -12 -12 -4 5 6 7 8 5 7 1 -1 -2 -2 -4 -4 -5 -6 -4 -3 7 2 6 7 9 4 -1 4 5 4 -1 -9 -16 -15 -17 -18 -19 -19 -20 -19 -19 -20 -19 -19 -18 -17 -15 -16 -15 -14 -14 -14 -13 -12 -11
-17 -18 -18 -18 -17 -17 -16 -16 -17 -13 -12 -12 -1 4 6 7 8 8 1 0 -0 -1 -2 -3 -3 -4 5 6 1 2 7 6 1 -2 3 3 1 -5 -8 -18 -19 -20 -21 -20 -21 -21 -21 -21 -20 -20 -20 -20 -19 -18 -16 -16 -15 -15 -14 -14 -14 -12 -12
-18 -18 -18 -18 -18 -18 -17 -17 -17 -18 -15 -12 -11 3 6 7 7 4 1 -2 -2 -2 -3 -3 4 6 4 1 4 4 4 -0 -4 -3 -4 -7 -7 -8 -21 -21 -23 -23 -23 -23 -22 -22 -22 -21 -21 -20 -19 -17 -16 -16 -15 -15 -16 -15 -15 -15 -15 -14 -14
-18 -18 -19 -19 -18 -18 -18 -18 -18 -18 -18 -14 -13 -12 -2 4 1 -1 -1 -2 -3 -2 -2 -0 3 -1 -2 -2 -3 -5 -9 -11 -13 -8 -7 -8 -11 -23 -22 -23 -24 -24 -24 -23 -23 -22 -22 -21 -21 -21 -20 -18 -17 -18 -19 -18 -18 -19 -19 -18 -18 -18 -17
-18 -18 -18 -19 -19 -19 -19 -19 -18 -18 -18 -18 -17 -17 -16 -14 -13 -10 -8 -9 -9 -7 -8 -7 -6 -6 -5 -5 -4 -4 -4 -6 -9 -17 -18 -22 -23 -23 -24 -23 -24 -23 -23 -23 -23 -22 -22 -21 -21 -21 -20 -21 -21 -20 -20 -19 -19 -20 -20 -19 -19 -19 -19
-18 -18 -18 -19 -19 -19 -19 -18 -18 -18 -18 -17 -17 -17 -16 -16 -16 -16 -16 -15 -14 -13 -13 -11 -8 -9 -10 -12 -15 -16 -20 -21 -23 -23 -22 -23 -24 -24 -23 -19 -15 -15 -19 -20 -22 -22 -23 -23 -24 -24 -23 -22 -22 -21 -21 -20 -20 -21 -21 -20 -19 -20 -21
-18 -18 -18 -18 -18 -18 -17 -17 -17 -16 -12 -13 -10 -12 -15 -15 -15 -15 -14 -12 -9 -11 -12 -13 -13 -15 -15 -16 -16 -17 -18 -21 -23 -24 -26 -27 -27 -27 -26 -26 -26 -26 -25 -25 -25 -26 -25 -25 -24 -24 -23 -23 -23 -23 -23 -22 -22 -21 -21 -21 -20 -21 -21
-13 -15 -15 -14 -13 -14 -14 -13 -11 -5 7 8 5 6 -0 -3 3 -3 -7 -7 -6 -6 -9 -11 -13 -15 -16 -18 -20 -20 -22 -24 -25 -26 -27 -28 -21 -23 -25 -25 -26 -26 -26 -26 -25 -25 -25 -25 -24 -25 -25 -25 -25 -25 -24 -23 -20 -22 -21 -21 -22 -23 -22
9 10 4 -3 -8 -6 -5 -5 -4 -2 7 7 6 3 6 4 0 1 1 0 -3 -5 -6 -11 -16 -18 -21 -21 -22 -23 -23 -25 -27 -27 -28 -27 -28 -28 -27 -26 -27 -27 -26 -25 -26 -26 -26 -25 -26 -26 -26 -26 -26 -26 -25 -25 -23 -22 -22 -23 -23 -23 -24
9 9 7 4 2 2 0 1 1 0 7 4 3 4 5 6 5 5 3 0 -3 -13 -18 -18 -18 -20 -22 -24 -25 -25 -26 -27 -28 -28 -28 -28 -29 -29 -28 -27 -27 -27 -28 -27 -27 -27 -27 -27 -28 -28 -27 -27 -27 -26 -26 -25 -25 -24 -24 -24 -24 -24 -24
8 8 8 8 8 8 7 2 -0 0 6 7 6 6 -0 4 4 -2 -3 -5 -10 -15 -17 -22 -22 -22 -24 -26 -25 -26 -27 -28 -28 -29 -29 -29 -29 -29 -29 -28 -27 -25 -26 -27 -27 -27 -28 -28 -28 -27 -27 -27 -27 -27 -27 -27 -26 -26 -25 -25 -25 -25 -24
-0 1 -5 -3 2 4 4 4 3 3 2 3 4 3 2 -5 -8 2 4 -4 -9 -17 -19 -22 -24 -26 -27 -27 -27 -28 -28 -29 -29 -29 -29 -29 -29 -29 -29 -28 -28 -29 -29 -28 -28 -28 -28 -28 -28 -28 -29 -29 -29 -28 -27 -27 -27 -27 -27 -27 -26 -26 -26
-18 -15 -13 -14 -13 -12 -11 -11 -11 -10 -10 -10 -10 -10 -4 4 -7 -12 -17 -22 -26 -24 -22 -24 -25 -26 -27 -28 -29 -29 -29 -29 -30 -30 -30 -29 -29 -29 -29 -30 -30 -30 -30 -29 -29 -29 -29 -29 -29 -29 -29 -29 -29 -29 -29 -29 -29 -29 -28 -27 -27 -26 -26
-19 -20 -15 -15 -14 -13 -12 -12 -12 -12 -12 -3 2 2 -3 -15 -20 -21 -22 -22 -23 -25 -24 -25 -25 -26 -26 -27 -28 -28 -29 -29 -29 -30 -30 -30 -30 -30 -30 -30 -30 -30 -30 -30 -30 -30 -29 -28 -29 -29 -29 -29 -30 -30 -30 -30 -29 -29 -28 -27 -27 -26 -27